This is the latest recevied weather packets stored in our database for station/object YC0TBU-3. If no packets are shown the sender has not sent any weather packets the latest 10 day(s).
| Time | Temp. | Humidity | Pressure | Rain* | Wind** | Luminosity | Snow |
|---|---|---|---|---|---|---|---|
| 1777604423 | 24.44° C | 53% | 1015.8 hPa | - | - | - | - |
| 1777603696 | 24.44° C | 53% | 1013.3 hPa | - | - | - | - |
| 1777602991 | 24.44° C | 53% | 1015.3 hPa | - | - | - | - |
| 1777602286 | 24.44° C | 53% | 1014.9 hPa | - | - | - | - |
| 1777601581 | 24.44° C | 54% | 1014.7 hPa | - | - | - | - |
| 1777600882 | 24.44° C | 54% | 1014.5 hPa | - | - | - | - |
| 1777600161 | 25° C | 53% | 1015.3 hPa | - | - | - | - |
| 1777599440 | 24.44° C | 53% | 1014.4 hPa | - | - | - | - |
| 1777598718 | 24.44° C | 54% | 1015.2 hPa | - | - | - | - |
| 1777597992 | 23.89° C | 55% | 1015.1 hPa | - | - | - | - |
| 1777597287 | 23.89° C | 55% | 1015.5 hPa | - | - | - | - |
| 1777596582 | 23.89° C | 55% | 1013.3 hPa | - | - | - | - |
| 1777595877 | 23.33° C | 55% | 1014.7 hPa | - | - | - | - |
| 1777595172 | 23.89° C | 54% | 1013.9 hPa | - | - | - | - |
| 1777594472 | 23.89° C | 55% | 1014.5 hPa | - | - | - | - |
| 1777593746 | 23.89° C | 54% | 1014.6 hPa | - | - | - | - |
| 1777593041 | 23.89° C | 55% | 1013.4 hPa | - | - | - | - |
| 1777592336 | 23.33° C | 55% | 1012.9 hPa | - | - | - | - |
| 1777591631 | 23.33° C | 56% | 1014.8 hPa | - | - | - | - |
| 1777590931 | 23.33° C | 56% | 1013.3 hPa | - | - | - | - |
| 1777590204 | 23.33° C | 55% | 1012.6 hPa | - | - | - | - |
| 1777589499 | 23.33° C | 55% | 1013.9 hPa | - | - | - | - |
| 1777588794 | 23.33° C | 56% | 1013.3 hPa | - | - | - | - |
| 1777588089 | 23.33° C | 55% | 1013 hPa | - | - | - | - |
| 1777587390 | 23.33° C | 55% | 1012 hPa | - | - | - | - |
* Rain since midnight (hover to see other rain measurements)
** Current wind speed in m/s (hover to see current wind gust speed)